When you browse on this site, cookies collect data to enhance your experience and personalize the content and advertising you see.
Visit our Privacy Policy to learn more. By continuing to use the site, you agree to this use of cookies and data.
  • In Latvia
  • List of Countries
  • For 7 days
  • Water Temperature
  • Weather Map
  • Weather Widgets
  • user-avatar
    Login

    Hourly Weather Minsk

    Today, 12 December, Thursday

    Time Temperature Precipitation Wind Pressure Humidity
    00:00 -2°C° 0 mm 3 mps 744 mmHg 95%
    01:00 -2°C° 0 mm 3 mps 744 mmHg 94%
    02:00 -2°C° 0 mm 3 mps 744 mmHg 93%
    03:00 -3°C° 0 mm 4 mps 744 mmHg 92%
    04:00 -3°C° 0 mm 4 mps 743 mmHg 90%
    05:00 -3°C° 0 mm 4 mps 742 mmHg 89%
    06:00 -4°C° 0 mm 5 mps 742 mmHg 86%
    07:00 -4°C° 0 mm 6 mps 742 mmHg 84%
    08:00 -3°C° 0 mm 6 mps 742 mmHg 81%
    09:00 -3°C° 0.1 mm 6 mps 741 mmHg 86%
    10:00 -3°C° 0.1 mm 7 mps 741 mmHg 90%
    11:00 -2°C° 0.1 mm 7 mps 740 mmHg 95%
    12:00 -2°C° 0.1 mm 7 mps 740 mmHg 94%
    13:00 -1°C° 0.1 mm 7 mps 740 mmHg 93%
    14:00 0°C° 0.1 mm 7 mps 740 mmHg 91%
    15:00 0°C° 0 mm 7 mps 740 mmHg 91%
    16:00 +1°C° 0 mm 6 mps 739 mmHg 90%
    17:00 +1°C° 0 mm 6 mps 739 mmHg 89%
    18:00 -1°C° 0 mm 6 mps 739 mmHg 90%
    19:00 -1°C° 0 mm 6 mps 739 mmHg 91%
    20:00 -1°C° 0 mm 6 mps 739 mmHg 91%
    21:00 -1°C° 0 mm 6 mps 739 mmHg 91%
    22:00 -1°C° 0 mm 6 mps 739 mmHg 91%
    23:00 -1°C° 0 mm 6 mps 739 mmHg 91%

    Tomorrow, 13 December, Friday

    Time Temperature Precipitation Wind Pressure Humidity
    00:00 -1°C° 0 mm 6 mps 738 mmHg 91%
    01:00 -1°C° 0 mm 6 mps 738 mmHg 90%
    02:00 0°C° 0 mm 5 mps 738 mmHg 90%
    03:00 -1°C° 0 mm 5 mps 738 mmHg 90%
    04:00 -1°C° 0 mm 5 mps 737 mmHg 91%
    05:00 -1°C° 0 mm 5 mps 737 mmHg 91%
    06:00 -2°C° 0 mm 6 mps 736 mmHg 92%
    07:00 -2°C° 0 mm 6 mps 736 mmHg 92%
    08:00 -2°C° 0 mm 6 mps 736 mmHg 93%
    09:00 -2°C° 0 mm 6 mps 736 mmHg 92%
    10:00 -2°C° 0 mm 6 mps 735 mmHg 92%
    11:00 -2°C° 0 mm 6 mps 735 mmHg 91%
    12:00 -2°C° 0 mm 6 mps 735 mmHg 91%
    13:00 -2°C° 0 mm 7 mps 734 mmHg 90%
    14:00 -2°C° 0 mm 7 mps 734 mmHg 89%
    15:00 -2°C° 0 mm 7 mps 734 mmHg 90%
    16:00 -2°C° 0 mm 7 mps 734 mmHg 90%
    17:00 -2°C° 0 mm 7 mps 733 mmHg 91%
    18:00 -2°C° 0 mm 7 mps 733 mmHg 89%
    19:00 -2°C° 0 mm 7 mps 734 mmHg 87%
    20:00 -2°C° 0 mm 7 mps 734 mmHg 85%
    21:00 -2°C° 0 mm 7 mps 734 mmHg 84%
    22:00 -2°C° 0 mm 6 mps 734 mmHg 84%
    23:00 -2°C° 0 mm 6 mps 734 mmHg 84%

    Day after tomorrow, 14 December, Saturday

    Time Temperature Precipitation Wind Pressure Humidity
    00:00 -2°C° 0 mm 6 mps 734 mmHg 85%
    01:00 -2°C° 0 mm 6 mps 734 mmHg 85%
    02:00 -2°C° 0 mm 6 mps 734 mmHg 85%
    03:00 -2°C° 0 mm 6 mps 734 mmHg 86%
    04:00 -2°C° 0 mm 6 mps 734 mmHg 86%
    05:00 -2°C° 0 mm 6 mps 733 mmHg 86%
    06:00 -2°C° 0.1 mm 6 mps 734 mmHg 89%
    07:00 -2°C° 0.1 mm 6 mps 734 mmHg 93%
    08:00 -2°C° 0.1 mm 6 mps 734 mmHg 96%
    09:00 -2°C° 0.1 mm 6 mps 734 mmHg 95%
    10:00 -1°C° 0.1 mm 6 mps 734 mmHg 94%
    11:00 -1°C° 0.1 mm 6 mps 734 mmHg 93%
    12:00 +1°C° 0 mm 6 mps 734 mmHg 92%
    13:00 +1°C° 0 mm 6 mps 734 mmHg 91%
    14:00 +1°C° 0 mm 6 mps 734 mmHg 89%
    15:00 +1°C° 0.2 mm 6 mps 734 mmHg 90%
    16:00 +1°C° 0.2 mm 5 mps 734 mmHg 92%
    17:00 +1°C° 0.2 mm 5 mps 734 mmHg 93%
    18:00 +1°C° 0.2 mm 5 mps 734 mmHg 93%
    19:00 +1°C° 0.2 mm 6 mps 734 mmHg 93%
    20:00 +1°C° 0.2 mm 6 mps 734 mmHg 93%
    21:00 +1°C° 0.2 mm 5 mps 733 mmHg 93%
    22:00 +1°C° 0.2 mm 5 mps 733 mmHg 94%
    23:00 +1°C° 0.2 mm 5 mps 733 mmHg 94%

    15 December, Sunday

    Time Temperature Precipitation Wind Pressure Humidity
    00:00 +1°C° 0.6 mm 5 mps 733 mmHg 95%
    01:00 +1°C° 0.6 mm 4 mps 733 mmHg 95%
    02:00 +3°C° 0.6 mm 4 mps 733 mmHg 96%
    03:00 +1°C° 0 mm 4 mps 733 mmHg 95%
    04:00 +1°C° 0 mm 4 mps 733 mmHg 94%
    05:00 +1°C° 0 mm 4 mps 734 mmHg 93%
    06:00 +1°C° 0 mm 4 mps 734 mmHg 92%
    07:00 +1°C° 0 mm 4 mps 734 mmHg 92%
    08:00 +1°C° 0 mm 4 mps 735 mmHg 91%
    09:00 +1°C° 0 mm 5 mps 735 mmHg 89%
    10:00 +1°C° 0 mm 5 mps 736 mmHg 86%
    11:00 +2°C° 0 mm 6 mps 737 mmHg 83%
    12:00 +2°C° 0 mm 5 mps 737 mmHg 81%
    13:00 +2°C° 0 mm 5 mps 737 mmHg 79%
    14:00 +3°C° 0 mm 4 mps 737 mmHg 77%
    15:00 +1°C° 0 mm 4 mps 738 mmHg 79%
    16:00 +1°C° 0 mm 5 mps 738 mmHg 81%
    17:00 0°C° 0 mm 5 mps 738 mmHg 83%
    18:00 -1°C° 0.1 mm 6 mps 738 mmHg 83%
    19:00 0°C° 0.1 mm 7 mps 737 mmHg 83%
    20:00 0°C° 0.1 mm 7 mps 737 mmHg 83%
    21:00 +2°C° 0.6 mm 7 mps 737 mmHg 83%
    22:00 +2°C° 0.6 mm 7 mps 737 mmHg 83%
    23:00 +3°C° 0.6 mm 7 mps 738 mmHg 83%

    16 December, Monday

    Time Temperature Precipitation Wind Pressure Humidity
    00:00 +2°C° 0 mm 7 mps 738 mmHg 83%
    01:00 +2°C° 0 mm 6 mps 739 mmHg 84%
    02:00 +2°C° 0 mm 6 mps 739 mmHg 84%
    03:00 +1°C° 0 mm 5 mps 740 mmHg 84%
    04:00 +1°C° 0 mm 5 mps 741 mmHg 84%
    05:00 0°C° 0 mm 5 mps 741 mmHg 84%
    06:00 -1°C° 0 mm 5 mps 742 mmHg 84%
    07:00 -1°C° 0 mm 4 mps 742 mmHg 84%
    08:00 -1°C° 0 mm 4 mps 742 mmHg 83%
    09:00 -1°C° 0 mm 4 mps 743 mmHg 79%
    10:00 0°C° 0 mm 4 mps 743 mmHg 74%
    11:00 0°C° 0 mm 4 mps 744 mmHg 70%
    12:00 0°C° 0 mm 4 mps 744 mmHg 69%
    13:00 +1°C° 0 mm 4 mps 743 mmHg 68%
    14:00 +1°C° 0 mm 4 mps 743 mmHg 67%
    15:00 0°C° 0 mm 4 mps 743 mmHg 73%
    16:00 0°C° 0 mm 4 mps 743 mmHg 80%
    17:00 -1°C° 0 mm 4 mps 743 mmHg 86%
    18:00 -1°C° 0 mm 4 mps 743 mmHg 88%
    19:00 0°C° 0 mm 4 mps 743 mmHg 90%
    20:00 0°C° 0 mm 4 mps 743 mmHg 92%
    21:00 0°C° 0 mm 4 mps 743 mmHg 92%
    22:00 +1°C° 0 mm 4 mps 743 mmHg 91%
    23:00 +1°C° 0 mm 4 mps 743 mmHg 91%

    17 December, Tuesday

    Time Temperature Precipitation Wind Pressure Humidity
    00:00 +2°C° 0 mm 3 mps 743 mmHg 91%
    01:00 +2°C° 0 mm 3 mps 743 mmHg 91%
    02:00 +3°C° 0 mm 2 mps 743 mmHg 92%
    03:00 +3°C° 0 mm 2 mps 743 mmHg 92%
    04:00 +3°C° 0 mm 2 mps 743 mmHg 92%
    05:00 +3°C° 0 mm 2 mps 743 mmHg 92%
    06:00 +3°C° 0.1 mm 2 mps 743 mmHg 92%
    07:00 +3°C° 0.1 mm 2 mps 743 mmHg 91%
    08:00 +3°C° 0.1 mm 2 mps 743 mmHg 91%
    09:00 +3°C° 0 mm 2 mps 743 mmHg 90%
    10:00 +3°C° 0 mm 2 mps 743 mmHg 89%
    11:00 +3°C° 0 mm 2 mps 743 mmHg 88%
    12:00 +3°C° 0 mm 2 mps 743 mmHg 88%
    13:00 +3°C° 0 mm 2 mps 743 mmHg 88%
    14:00 +4°C° 0 mm 2 mps 742 mmHg 88%
    15:00 +3°C° 0 mm 2 mps 742 mmHg 90%
    16:00 +3°C° 0 mm 2 mps 742 mmHg 92%
    17:00 +2°C° 0 mm 2 mps 742 mmHg 94%
    18:00 +2°C° 0 mm 2 mps 742 mmHg 94%
    19:00 +2°C° 0 mm 2 mps 742 mmHg 94%
    20:00 +2°C° 0 mm 2 mps 742 mmHg 94%
    21:00 +1°C° 0 mm 3 mps 742 mmHg 93%
    22:00 +1°C° 0 mm 3 mps 742 mmHg 93%
    23:00 +2°C° 0 mm 3 mps 741 mmHg 92%
    Show more